Flag Weather past 2 weeks in Sedona, Arizona, U.S.A.

Now
55 °F

Clear.


Feels Like: 53 °F
Forecast: 49 / 71 °F
Wind: 9 mph from Northeast

Location: Sedona Airport

Current Time: Nov 27, 2014 at 11:02:42 PM

Latest Report: Nov 27, 2014 at 10:35 PM


Visibility: 10 mi

Pressure: 30.27 "Hg

Humidity: 23%

Dew point: 18 °F

Location of SedonaLocation

Historic Weather in Sedona — Graph

°F

Sedona temperature yesterday

Maximum temperature yesterday: 70 °F (at 2:55 PM)
Minimum temperature yesterday: 43 °F (at 5:15 AM)
Average temperature yesterday: 55 °F

Past Weeks' High & Low Weather Summary

 TemperatureHumidityPressure
High75 °F (Nov 27, 2:35 PM)93% (Nov 15, 2:35 AM)30.48 "Hg (Nov 15, 2:35 AM)
Low34 °F (Nov 24, 3:15 AM)9% (Nov 16, 1:15 PM)29.94 "Hg (Nov 16, 12:15 AM)
Average50 °F32%30.18 "Hg
* Reported Nov 12 9:15 PM — Nov 27 9:55 PM, Sedona, Weather by CustomWeather, © 2014

Note: Actual official high and low records may vary slightly from our data, if they occured in-between our weather recording intervals... More about our weather records

Advertising

Sedona weather history for previous 24 hours

 ConditionsComfort  
Time TempWeatherWind HumidityBarometerVisibility
9:55 PM
Nov 27
55 °FClear.7 mph23%30.26 "Hg10 mi
9:35 PM59 °FClear.8 mph20%30.26 "Hg10 mi
9:15 PM59 °FClear.7 mph21%30.26 "Hg10 mi
8:15 PM61 °FClear.7 mph19%30.26 "Hg10 mi
7:55 PM61 °FClear.9 mph19%30.26 "Hg10 mi
7:35 PM61 °FClear.9 mph19%30.26 "Hg10 mi
7:15 PM61 °FClear.9 mph19%30.26 "Hg10 mi
6:55 PM61 °FClear.8 mph20%30.26 "Hg10 mi
6:35 PM63 °FClear.8 mph19%30.26 "Hg10 mi
6:15 PM63 °FClear.3 mph17%30.26 "Hg10 mi
5:35 PM64 °FClear.No wind15%30.27 "Hg10 mi
5:15 PM68 °FSunny.No wind14%30.26 "Hg10 mi
4:55 PM68 °FSunny.No wind14%30.26 "Hg10 mi
4:15 PM70 °FSunny.5 mph13%30.27 "Hg10 mi
3:55 PM72 °FSunny.3 mph14%30.27 "Hg10 mi
3:35 PM72 °FSunny.3 mph14%30.27 "Hg10 mi
3:15 PM73 °FSunny.6 mph13%30.27 "Hg10 mi
2:55 PM73 °FSunny.6 mph13%30.27 "Hg10 mi
2:35 PM75 °FSunny.5 mph12%30.28 "Hg10 mi
2:15 PM73 °FSunny.7 mph13%30.28 "Hg10 mi
1:55 PM72 °FSunny.3 mph14%30.29 "Hg10 mi
1:15 PM70 °FSunny.3 mph15%30.31 "Hg10 mi
12:55 PM70 °FSunny.7 mph15%30.32 "Hg10 mi
12:15 PM68 °FSunny.3 mph16%30.33 "Hg10 mi
11:55 AM68 °FSunny.5 mph16%30.35 "Hg10 mi
11:35 AM68 °FSunny.3 mph16%30.36 "Hg10 mi
11:15 AM68 °FSunny.7 mph16%30.37 "Hg10 mi
10:55 AM64 °FSunny.5 mph18%30.38 "Hg10 mi
10:35 AM64 °FSunny.3 mph18%30.39 "Hg10 mi
10:15 AM63 °FSunny.3 mph19%30.40 "Hg10 mi
9:55 AM63 °FSunny.No wind19%30.40 "Hg10 mi
9:35 AM61 °FSunny.5 mph20%30.40 "Hg10 mi
9:15 AM59 °FSunny.5 mph21%30.40 "Hg10 mi
8:55 AM57 °FSunny.No wind23%30.40 "Hg10 mi
8:35 AM55 °FSunny.8 mph24%30.40 "Hg10 mi
8:15 AM55 °FSunny.5 mph23%30.40 "Hg10 mi
7:55 AM54 °FSunny.8 mph24%30.39 "Hg10 mi
7:35 AM52 °FSunny.8 mph26%30.39 "Hg10 mi
7:15 AM52 °FSunny.8 mph28%30.38 "Hg10 mi
6:55 AM54 °FClear.8 mph24%30.37 "Hg10 mi
6:35 AM54 °FClear.9 mph24%30.37 "Hg10 mi
6:15 AM54 °FClear.12 mph24%30.36 "Hg10 mi
5:55 AM54 °FClear.9 mph24%30.36 "Hg10 mi
5:35 AM54 °FClear.8 mph26%30.36 "Hg10 mi
5:15 AM54 °FClear.10 mph26%30.36 "Hg10 mi
4:55 AM54 °FClear.12 mph26%30.36 "Hg10 mi
4:35 AM54 °FClear.13 mph24%30.36 "Hg10 mi
4:15 AM54 °FClear.10 mph24%30.36 "Hg10 mi
3:55 AM54 °FClear.12 mph26%30.36 "Hg10 mi
3:35 AM54 °FClear.13 mph26%30.36 "Hg10 mi
3:15 AM54 °FClear.12 mph24%30.37 "Hg10 mi
2:55 AM54 °FClear.14 mph24%30.37 "Hg10 mi
2:35 AM52 °FClear.14 mph26%30.38 "Hg10 mi
2:15 AM54 °FClear.14 mph24%30.38 "Hg10 mi
1:55 AM54 °FClear.14 mph24%30.38 "Hg10 mi
1:15 AM52 °FClear.10 mph26%30.38 "Hg10 mi
12:55 AM54 °FClear.14 mph24%30.38 "Hg10 mi
12:35 AM54 °FClear.14 mph24%30.38 "Hg10 mi
12:15 AM54 °FClear.9 mph24%30.38 "Hg10 mi
11:55 PM
Nov 26
54 °FClear.13 mph22%30.38 "Hg10 mi
11:35 PM55 °FClear.12 mph21%30.38 "Hg10 mi
11:15 PM57 °FClear.12 mph20%30.38 "Hg10 mi
Weather by CustomWeather, © 2014

See weather overviewHow to use our weather pages